Date,Time,Air Temperature,Dewpoint,Windchill,Heat Index,RH,3m Max Wind Speed,3m Mean Wind Speed,3m Wind Direction,Rain,Solar Radiation
,,F,F,F,F,%,MPH,MPH,deg,in,MJ/m^2
2024-04-17,05:30,37.3,20.6,37.3,37.3,50.6,1.3,0.2,235,0.0,-0.0009994999
2024-04-17,05:35,36.8,20.7,36.8,36.8,51.7,0,0,0,0.0,-0.0012333
2024-04-17,05:40,36.5,20.2,36.5,36.5,51.2,1.3,0.1,238.4,0.0,-0.00123285
2024-04-17,05:45,35,20.5,35.0,35,55.0,0.8,0,212.1,0.0,-0.00142534
2024-04-17,05:50,36.5,20,36.5,36.5,50.7,3.5,1.3,251.6,0.0,-0.00096456
2024-04-17,05:55,42.2,19.2,42.2,42.2,39.4,6,1.8,277.2,0.0,-0.00033979
2024-04-17,06:00,44.3,20.3,44.3,44.3,38.1,6,2.5,257.6,0.0,-0.0006234
2024-04-17,06:05,42.2,20.4,42.2,42.2,41.5,7.4,3,241.5,0.0,-0.00128594
2024-04-17,06:10,42.8,19.9,42.8,42.8,39.6,6.5,2.1,262.1,0.0,-0.00113936
2024-04-17,06:15,43.3,19.3,43.3,43.3,37.8,4.2,1.5,258.8,0.0,-0.0009354
2024-04-17,06:20,43.4,18.9,43.4,43.4,37.0,10.3,2.9,252.6,0.0,-0.00066928
2024-04-17,06:25,43.9,19.1,43.9,43.9,36.8,6,3.1,270.6,0.0,-0.00006983
2024-04-17,06:30,43.5,19.4,43.5,43.5,37.7,5.3,1.9,257.6,0.0,0.00039954
2024-04-17,06:35,43.8,19.1,43.8,43.8,36.8,6.3,3.9,252.1,0.0,0.00124694
2024-04-17,06:40,44.6,19.6,44.6,44.6,36.5,7.8,4.2,259.8,0.0,0.00198558
2024-04-17,06:45,46,17.7,46.0,46,31.9,8.1,5.1,277.9,0.0,0.0032569
2024-04-17,06:50,46.2,19.7,46.2,46.2,34.5,9.2,2,259.4,0.0,0.01158485
2024-04-17,06:55,44.9,19.6,44.9,44.9,36.0,4.6,1.5,275.2,0.0,0.02337541
2024-04-17,07:00,46,19.4,46.0,46,34.3,7.8,2.1,277.9,0.0,0.02871064
2024-04-17,07:05,46.2,18.7,46.2,46.2,33.1,8.5,2.4,265.2,0.0,0.03272485
2024-04-17,07:10,46.9,19.3,46.9,46.9,33,8,3,252.8,0.0,0.03707165
2024-04-17,07:15,48,17.9,48.0,48,29.8,8.1,2.8,273.6,0.0,0.0416257
2024-04-17,07:20,49.3,17.9,49.3,49.3,28.4,8,3.7,292.3,0.0,0.04627183
2024-04-17,07:25,50.1,16.6,50.1,50.1,26.1,9.9,4.5,289.2,0.0,0.05079006
2024-04-17,07:30,50.8,16.2,50.8,50.8,25,10.6,4.5,296.4,0.0,0.05560793
2024-04-17,07:35,50.9,16.6,50.9,50.9,25.4,13.5,5.8,294.9,0.0,0.06039368
2024-04-17,07:40,51.4,18.3,51.4,51.4,26.8,4.4,0.9,287.2,0.0,0.06501184
2024-04-17,07:45,51.9,17.7,51.9,51.9,25.6,7.4,2.6,311.3,0.0,0.06988326
2024-04-17,07:50,52.3,16.6,52.3,52.3,24.1,3.5,0.9,294.9,0.0,0.07494904
2024-04-17,07:55,52.3,16.6,52.3,52.3,24.1,8.8,3.5,300.6,0.0,0.07979769
2024-04-17,08:00,52.9,15.7,52.9,52.9,22.6,6.2,1.5,277.4,0.0,0.08479005
2024-04-17,08:05,53.5,16.7,53.5,53.5,23.1,9.6,3.6,288.9,0.0,0.09033336
2024-04-17,08:10,54.1,13.3,54.1,54.1,19.5,11.5,5.2,294.4,0.0,0.09617385
2024-04-17,08:15,54.6,10.6,54.6,54.6,17,9.9,5.7,296,0.0,0.1016397
2024-04-17,08:20,55.1,12.2,55.1,55.1,17.9,8.8,5.4,311.2,0.0,0.1071524
2024-04-17,08:25,55.1,11.8,55.1,55.1,17.6,9.4,5.7,302.4,0.0,0.1125005
2024-04-17,08:30,55.6,9.7,55.6,55.6,15.7,12.4,5.8,301.1,0.0,0.1181691
2024-04-17,08:35,55.9,10.4,55.9,55.9,16.0,11,5.5,294.3,0.0,0.1232232
2024-04-17,08:40,55.8,10.1,55.8,55.8,15.9,12.6,7.4,296.6,0.0,0.1286732
2024-04-17,08:45,56,10.1,56.0,56,15.8,13.1,6.1,287.3,0.0,0.1347117
2024-04-17,08:50,56.2,12.4,56.2,56.2,17.3,14,8.3,295.9,0.0,0.1407229
2024-04-17,08:55,56.5,11.2,56.5,56.5,16.3,10.6,4.9,294.8,0.0,0.1475761
2024-04-17,09:00,57.2,12.5,57.2,57.2,16.8,8.8,3.7,292.5,0.0,0.1579063
2024-04-17,09:05,57.9,8.6,57.9,57.9,13.8,8.1,3.9,311.7,0.0,0.1744398
2024-04-17,09:10,58.3,9.9,58.3,58.3,14.4,8.3,3.9,278.8,0.0,0.1921318
2024-04-17,09:15,58.6,8.5,58.6,58.6,13.4,11,4.5,291.4,0.0,0.1832548
2024-04-17,09:20,58.8,10.4,58.8,58.8,14.5,11.3,4.2,308.2,0.0,0.1622118
2024-04-17,09:25,58.5,11.4,58.5,58.5,15.3,12.1,5.5,308.4,0.0,0.1487235
2024-04-17,09:30,58.9,11.5,58.9,58.9,15.2,5.3,1.1,302.9,0.0,0.1459692
2024-04-17,09:35,59.1,11.7,59.1,59.1,15.2,9,3.8,303,0.0,0.1562816
2024-04-17,09:40,58.6,10.7,58.6,58.6,14.8,13.3,6.1,316.4,0.0,0.1733151
2024-04-17,09:45,59.2,12.8,59.2,59.2,15.9,7.2,3,305,0.0,0.1957548
2024-04-17,09:50,58.5,13.1,58.5,58.5,16.5,12.2,5,307.4,0.0,0.1842577
2024-04-17,09:55,59.4,12,59.4,59.4,15.2,8.7,4,321,0.0,0.2291016
2024-04-17,10:00,59,11.5,59.0,59,15.1,14.7,8.2,303.5,0.0,0.2174344
2024-04-17,10:05,58.9,12.4,58.9,58.9,15.8,9.6,4,323.5,0.0,0.190722
2024-04-17,10:10,58.3,10.3,58.3,58.3,14.7,16.9,5.6,287.7,0.0,0.1662439
2024-04-17,10:15,58.4,12.6,58.4,58.4,16.2,14.4,6.9,284,0.0,0.215358
2024-04-17,10:20,59.1,11.8,59.1,59.1,15.2,14.7,8.6,307.9,0.0,0.228483
2024-04-17,10:25,58.8,10.7,58.8,58.8,14.7,16.7,7.9,310.6,0.0,0.2244279
2024-04-17,10:30,59.6,13.6,59.6,59.6,16.2,9.6,2.6,342.2,0.0,0.2443328
2024-04-17,10:35,60.7,16,60.7,60.7,17.3,9.2,4.3,277.5,0.0,0.241509
2024-04-17,10:40,60.5,12.8,60.5,60.5,15.2,10.3,4,285.2,0.0,0.2428767
2024-04-17,10:45,61.1,11.8,61.1,61.1,14.2,9.6,4.2,298.9,0.0,0.2488882
2024-04-17,10:50,62.8,10.4,62.8,62.8,12.6,4.4,1.3,27.8,0.0,0.2521809
2024-04-17,10:55,61.9,9.6,61.9,61.9,12.5,5.6,2.4,6.7,0.0,0.2543561
2024-04-17,11:00,63.1,13.7,63.1,63.1,14.4,3.1,0.6,109.9,0.0,0.2569947
2024-04-17,11:05,63.4,9.5,63.4,63.4,11.8,5.6,1.4,80.1,0.0,0.2573672
2024-04-17,11:10,63.4,9.1,63.4,63.4,11.6,0.8,0,64.2,0.0,0.259825
2024-04-17,11:15,63.2,15.9,63.2,63.2,15.7,3.5,0.4,19,0.0,0.2616262
2024-04-17,11:20,63.5,10,63.5,63.5,12.0,4.7,1.4,123.3,0.0,0.2640338
2024-04-17,11:25,64.8,12.1,64.8,64.8,12.7,4.6,0.6,96.8,0.0,0.2669161
2024-04-17,11:30,64.3,15.5,64.3,64.3,14.9,4.2,0.7,131.9,0.0,0.2687733
2024-04-17,11:35,64.5,11.1,64.5,64.5,12.2,6,2.6,131,0.0,0.2717485
2024-04-17,11:40,64.2,10.3,64.2,64.2,11.9,8.5,2.7,150.3,0.0,0.2738914
2024-04-17,11:45,64.2,14.1,64.2,64.2,14.1,7.2,1.3,130.5,0.0,0.2762598
2024-04-17,11:50,65.1,13.1,65.1,65.1,13.1,4.4,1,195.3,0.0,0.2783008
2024-04-17,11:55,66.1,12.4,66.1,66.1,12.2,2.1,0.1,4.6,0.0,0.2811397
2024-04-17,12:00,64.4,12.3,64.4,64.4,12.9,8.8,4,302.3,0.0,0.2814745
2024-04-17,12:05,65.1,8.7,65.1,65.1,10.7,5.8,1.1,322.3,0.0,0.2836495
2024-04-17,12:10,65.4,11.2,65.4,65.4,11.9,8.8,2.6,29.7,0.0,0.2850119
2024-04-17,12:15,66.3,12.7,66.3,66.3,12.3,4.7,2.3,49.1,0.0,0.2870362
2024-04-17,12:20,65.8,10.2,65.8,65.8,11.2,6.7,3.2,59.2,0.0,0.2883989
2024-04-17,12:25,65.5,6.7,65.5,65.5,9.7,5.1,1,9.8,0.0,0.2886631
2024-04-17,12:30,66.8,10.8,66.8,66.8,11.2,2.8,0.3,99.8,0.0,0.2900865
2024-04-17,12:35,66.4,10.2,66.4,66.4,11.0,9.7,3.4,259.2,0.0,0.2905495
2024-04-17,12:40,65.9,7.4,65.9,65.9,9.9,10.3,5.6,284.9,0.0,0.2920451
2024-04-17,12:45,66.4,7.8,66.4,66.4,9.9,12.6,7.2,290.6,0.0,0.2930472
2024-04-17,12:50,66.4,7.2,66.4,66.4,9.6,11,6.1,293.2,0.0,0.2940331
2024-04-17,12:55,66.2,4.3,66.2,66.2,8.5,15.6,7.6,285.2,0.0,0.2945893
2024-04-17,13:00,66.1,7.6,66.1,66.1,9.9,12.8,7,303.6,0.0,0.2946997
2024-04-17,13:05,67.1,8.1,67.1,67.1,9.8,10.3,5.1,302.1,0.0,0.2947097
2024-04-17,13:10,66.3,10,66.3,66.3,10.9,10.6,6.7,292.5,0.0,0.294302
2024-04-17,13:15,68,8.1,68.0,68,9.5,9.2,4.7,330.6,0.0,0.2944058
2024-04-17,13:20,67.1,6.9,67.1,67.1,9.3,15.1,9.6,309.6,0.0,0.2935228
2024-04-17,13:25,67.1,8.8,67.1,67.1,10.1,15.8,9.9,294.9,0.0,0.2937689
2024-04-17,13:30,66.9,7.1,66.9,66.9,9.4,16.5,10.8,301,0.0,0.292552
2024-04-17,13:35,66.6,5.3,66.6,66.6,8.7,17.1,11.4,305,0.0,0.291756
2024-04-17,13:40,66,0.6,66.0,66,7.2,17.6,12.9,306.7,0.0,0.2911209
2024-04-17,13:45,66.4,3,66.4,66.4,7.9,15.8,11.6,301.7,0.0,0.2906128
2024-04-17,13:50,66.6,4.5,66.6,66.6,8.4,16.5,9.7,288.9,0.0,0.2897881
2024-04-17,13:55,66.7,2.7,66.7,66.7,7.7,17.2,10.6,286.4,0.0,0.2880395
2024-04-17,14:00,65.8,4.7,65.8,65.8,8.8,17.4,12.5,301.7,0.0,0.2858081
2024-04-17,14:05,66.7,5.8,66.7,66.7,8.9,16.9,10.1,280.5,0.0,0.284817
2024-04-17,14:10,66.3,8,66.3,66.3,10.0,14.6,10.8,280.9,0.0,0.2827203
2024-04-17,14:15,66.5,9.4,66.5,66.5,10.6,14.2,9.7,280.7,0.0,0.2807299
2024-04-17,14:20,65.6,11.4,65.6,65.6,11.9,17.1,10.1,295.5,0.0,0.2772203
2024-04-17,14:25,66.1,12.6,66.1,66.1,12.3,14.9,9.3,297.2,0.0,0.2749284
2024-04-17,14:30,66.7,11.9,66.7,66.7,11.7,14.2,8.7,294.8,0.0,0.2727499
2024-04-17,14:35,66.2,9.7,66.2,66.2,10.8,15.3,10.3,272.7,0.0,0.2701981
2024-04-17,14:40,66.7,13.5,66.7,66.7,12.6,14.9,9.1,287.3,0.0,0.2676379
2024-04-17,14:45,66.7,11,66.7,66.7,11.3,14.7,11.3,299.1,0.0,0.2642708
2024-04-17,14:50,66.9,12.9,66.9,66.9,12.1,15.5,9.4,301,0.0,0.261462
2024-04-17,14:55,66.8,15.9,66.8,66.8,13.9,13.9,7.7,292.3,0.0,0.2583741
2024-04-17,15:00,67.9,16.3,67.9,67.9,13.6,11,7.2,270.3,0.0,0.255896
2024-04-17,15:05,67.4,15.2,67.4,67.4,13.2,12.2,8.4,268.2,0.0,0.25248
2024-04-17,15:10,67.3,15.5,67.3,67.3,13.5,14.9,8,285.4,0.0,0.249319
2024-04-17,15:15,66.8,15,66.8,66.8,13.4,15.6,10,286.6,0.0,0.2458046
2024-04-17,15:20,68.1,15.1,68.1,68.1,12.9,12.8,7.5,279,0.0,0.2422777
2024-04-17,15:25,67.6,13.9,67.6,67.6,12.4,14.2,9.2,282.7,0.0,0.2385723
2024-04-17,15:30,67,13,67.0,67,12.1,12.2,9,291.6,0.0,0.2345174
2024-04-17,15:35,67.3,14.9,67.3,67.3,13.1,11.9,6.3,289,0.0,0.230898
2024-04-17,15:40,67.3,12.2,67.3,67.3,11.6,16.2,9.7,293.1,0.0,0.2268733
2024-04-17,15:45,67.6,16.1,67.6,67.6,13.6,11.3,6.8,273.3,0.0,0.2227534
2024-04-17,15:50,68.1,13.9,68.1,68.1,12.2,16.5,8,286.4,0.0,0.2187266
2024-04-17,15:55,68.3,10.8,68.3,68.3,10.6,14.7,8.8,244.4,0.0,0.215132
2024-04-17,16:00,68.2,12.8,68.2,68.2,11.6,10.6,7.2,241.3,0.0,0.2105605
2024-04-17,16:05,68.3,11.7,68.3,68.3,11.0,13.7,7.3,241.2,0.0,0.2068043
2024-04-17,16:10,68,14.8,68.0,68,12.8,12.4,7.4,247.9,0.0,0.2023504
2024-04-17,16:15,67.5,13.8,67.5,67.5,12.4,12.6,6.9,252.4,0.0,0.1973473
2024-04-17,16:20,67.8,12.8,67.8,67.8,11.8,8.7,4.2,250.4,0.0,0.1927772
2024-04-17,16:25,68,15.5,68.0,68,13.1,10.6,4.9,264.2,0.0,0.1878568
2024-04-17,16:30,67.8,11.8,67.8,67.8,11.2,14,8.5,270.1,0.0,0.1833761
2024-04-17,16:35,68.8,15.1,68.8,68.8,12.6,12.6,7.1,257,0.0,0.1785014
2024-04-17,16:40,68.5,11.9,68.5,68.5,11.1,11.2,5.8,248.6,0.0,0.1738169
2024-04-17,16:45,68.2,12.9,68.2,68.2,11.6,12.1,6.2,253.9,0.0,0.1689083
2024-04-17,16:50,67.9,12.5,67.9,67.9,11.6,12.8,7.6,218.1,0.0,0.1633623
2024-04-17,16:55,68.2,10.8,68.2,68.2,10.6,10.3,7.2,238.4,0.0,0.1580433
2024-04-17,17:00,67.8,11,67.8,67.8,10.8,14.9,6.6,243.8,0.0,0.1530526
2024-04-17,17:05,67.9,9.4,67.9,67.9,10.0,11.3,5.6,241.4,0.0,0.1477377
2024-04-17,17:10,68.2,10.2,68.2,68.2,10.3,10.6,5.4,245.4,0.0,0.1423577
2024-04-17,17:15,68.2,11.6,68.2,68.2,11.0,11.9,4.9,259.7,0.0,0.1372271
2024-04-17,17:20,67.5,11.6,67.5,67.5,11.3,16.7,9,254.3,0.0,0.1313261
2024-04-17,17:25,67.6,9.8,67.6,67.6,10.3,10.5,5.9,242.6,0.0,0.1262128
2024-04-17,17:30,67.2,10.6,67.2,67.2,10.9,12.6,7.1,248,0.0,0.1209045
2024-04-17,17:35,66.9,11.1,66.9,66.9,11.2,12.1,7.8,258.5,0.0,0.115719
2024-04-17,17:40,67.5,11.7,67.5,67.5,11.3,11.5,4.7,257.7,0.0,0.1103163
2024-04-17,17:45,67.2,9.9,67.2,67.2,10.5,11.5,6.1,242.4,0.0,0.1050632
2024-04-17,17:50,66.9,10.4,66.9,66.9,10.9,11,5.6,244.2,0.0,0.09962493
2024-04-17,17:55,67.2,10.1,67.2,67.2,10.7,10.5,4.3,249.3,0.0,0.09441018
2024-04-17,18:00,66.5,8.1,66.5,66.5,10.0,11.3,7.2,269,0.0,0.0891811
2024-04-17,18:05,66.4,10.5,66.4,66.4,11.2,13.5,8.1,278,0.0,0.08430348
2024-04-17,18:10,66.3,10,66.3,66.3,11.0,11.2,6.3,272.2,0.0,0.07924584
2024-04-17,18:15,66.3,10,66.3,66.3,10.9,12.1,5.7,268.5,0.0,0.07411835
2024-04-17,18:20,66.1,11.2,66.1,66.1,11.6,8,4.4,264.9,0.0,0.06916446
2024-04-17,18:25,66,9.1,66.0,66,10.6,11.3,5,266.7,0.0,0.06405398
2024-04-17,18:30,65.6,9.3,65.6,65.6,10.8,8.8,5.8,263.3,0.0,0.05904821
2024-04-17,18:35,65.5,7.5,65.5,65.5,10.0,10.5,6,274.4,0.0,0.05429734
2024-04-17,18:40,65.3,11.7,65.3,65.3,12.2,10.8,4.8,257.2,0.0,0.04943266
2024-04-17,18:45,65,7.9,65.0,65,10.4,11,6.9,251.8,0.0,0.04472264
2024-04-17,18:50,64.7,10.1,64.7,64.7,11.6,4.7,2.1,260.6,0.0,0.0400466
2024-04-17,18:55,64.4,9.2,64.4,64.4,11.3,7.1,2.9,251.5,0.0,0.03550929
2024-04-17,19:00,64.1,9.2,64.1,64.1,11.4,10.3,4.5,251.1,0.0,0.03103814
2024-04-17,19:05,63.8,10.5,63.8,63.8,12.2,9.4,5.1,263.3,0.0,0.0263724
2024-04-17,19:10,62.7,10,62.7,62.7,12.4,7.1,2.9,258.4,0.0,0.00650356
2024-04-17,19:15,61.5,11.2,61.5,61.5,13.6,4.7,0.8,256.5,0.0,0.00219627
2024-04-17,19:20,60.4,10.4,60.4,60.4,13.6,3.5,0.5,249.7,0.0,0.00167045
2024-04-17,19:25,59.8,10.9,59.8,59.8,14.3,2.6,0.3,257.8,0.0,0.00115873
2024-04-17,19:30,58.5,13,58.5,58.5,16.4,1.9,0.2,248.6,0.0,0.00046866
2024-04-17,19:35,57.4,12.4,57.4,57.4,16.7,0.8,0,201.8,0.0,-0.00031728
2024-04-17,19:40,56.8,12.3,56.8,56.8,17.0,1.3,0.1,243.8,0.0,-0.0006931699
2024-04-17,19:45,56.6,13.4,56.6,56.6,17.9,0,0,0,0.0,-0.00114869
2024-04-17,19:50,55.1,14.1,55.1,55.1,19.5,0,0,0,0.0,-0.00163742
2024-04-17,19:55,53.5,14.8,53.5,53.5,21.3,0,0,0,0.0,-0.00169288
2024-04-17,20:00,52.8,14.2,52.8,52.8,21.3,0,0,0,0.0,-0.00160991
2024-04-17,20:05,53.5,14.7,53.5,53.5,21.2,0,0,0,0.0,-0.0012123
2024-04-17,20:10,52.4,15,52.4,52.4,22.4,0,0,0,0.0,-0.00147052
2024-04-17,20:15,50.7,15.6,50.7,50.7,24.5,0,0,0,0.0,-0.00182369
2024-04-17,20:20,51.4,14.7,51.4,51.4,23.0,0,0,0,0.0,-0.00125197
2024-04-17,20:25,51.5,14.1,51.5,51.5,22.3,0,0,0,0.0,-0.00147701
2024-04-17,20:30,53.1,14,53.1,53.1,20.9,0,0,0,0.0,-0.00118979
2024-04-17,20:35,52.8,13.6,52.8,52.8,20.8,0,0,0,0.0,-0.00120391
2024-04-17,20:40,51.7,15,51.7,51.7,22.9,0,0,0,0.0,-0.00156664
2024-04-17,20:45,50.5,15.1,50.5,50.5,24.1,0,0,0,0.0,-0.0015193
2024-04-17,20:50,49.3,16.4,49.3,49.3,26.6,0,0,0,0.0,-0.00137107
2024-04-17,20:55,47.9,16,47.9,47.9,27.7,1.3,0.1,209.1,0.0,-0.00168407
2024-04-17,21:00,47,16.4,47.0,47,29.2,0,0,0,0.0,-0.00163385
2024-04-17,21:05,46.3,16.4,46.3,46.3,29.8,0,0,0,0.0,-0.00161232
2024-04-17,21:10,46.3,15.2,46.3,46.3,28.2,2.1,0.2,209.4,0.0,-0.00114967
2024-04-17,21:15,47.2,15.3,47.2,47.2,27.5,0,0,0,0.0,-0.00117519
2024-04-17,21:20,47.9,14.8,47.9,47.9,26.2,0,0,0,0.0,-0.00113577
2024-04-17,21:25,49.5,14.3,49.5,49.5,24.2,1,0,278.1,0.0,-0.0009475899
2024-04-17,21:30,50.5,15.7,50.5,50.5,24.7,1.9,0.1,304.3,0.0,-0.00102315
2024-04-17,21:35,49.5,15.9,49.5,49.5,25.9,0,0,0,0.0,-0.00141171
2024-04-17,21:40,47.8,16.8,47.8,47.8,28.7,1.3,0.1,260.5,0.0,-0.00150927
2024-04-17,21:45,45.6,16.9,45.6,45.6,31.4,0,0,0,0.0,-0.00164363
2024-04-17,21:50,44.8,16.4,44.8,44.8,31.6,0,0,0,0.0,-0.00155496
2024-04-17,21:55,44.6,17.2,44.6,44.6,32.9,0,0,0,0.0,-0.00138993
2024-04-17,22:00,43,17.4,43.0,43,35.3,0,0,0,0.0,-0.0014361
2024-04-17,22:05,42.8,17,42.8,42.8,34.9,2.6,0.1,217.8,0.0,-0.00136652
2024-04-17,22:10,41.9,17.1,41.9,41.9,36.4,5.3,0.4,239,0.0,-0.00135696
2024-04-17,22:15,41.8,17.5,41.8,41.8,37.2,0,0,0,0.0,-0.00120056
2024-04-17,22:20,42.3,16.9,42.3,42.3,35.5,3.1,0.3,242.3,0.0,-0.00102004
2024-04-17,22:25,42,16.8,42.0,42,35.7,1.2,0.1,206.2,0.0,-0.001158
2024-04-17,22:30,42.9,17.5,42.9,42.9,35.7,0,0,0,0.0,-0.00103822
2024-04-17,22:35,41.9,16.9,41.9,41.9,36.1,4,1,225.8,0.0,-0.00114631
2024-04-17,22:40,44.3,16.2,44.3,44.3,32.0,4.4,0.6,268.9,0.0,-0.00082324
2024-04-17,22:45,44.6,16.2,44.6,44.6,31.6,0,0,0,0.0,-0.00082493
2024-04-17,22:50,45.2,17.7,45.2,45.2,32.9,0,0,0,0.0,-0.00104755
2024-04-17,22:55,43.1,17.2,43.1,43.1,34.8,0,0,0,0.0,-0.0014899
2024-04-17,23:00,42.4,16.8,42.4,42.4,35.3,0,0,0,0.0,-0.00149565
2024-04-17,23:05,42.8,16.6,42.8,42.8,34.3,0,0,0,0.0,-0.00129338
2024-04-17,23:10,43,16.6,43.0,43,34.2,0,0,0,0.0,-0.00112165
2024-04-17,23:15,42.9,17.4,42.9,42.9,35.5,1,0.1,272.4,0.0,-0.00137681
2024-04-17,23:20,42.6,16.8,42.6,42.6,35.0,4.6,0.4,283.4,0.0,-0.00122206
2024-04-17,23:25,42.1,17,42.1,42.1,35.9,0.8,0,201.7,0.0,-0.00137654
2024-04-17,23:30,43,16.7,43.0,43,34.3,0,0,0,0.0,-0.00117357
2024-04-17,23:35,42.8,16.8,42.8,42.8,34.7,0,0,0,0.0,-0.00131201
2024-04-17,23:40,40.7,17.6,40.7,40.7,39.0,0,0,0,0.0,-0.00145737
2024-04-17,23:45,38.9,17.5,38.9,38.9,41.5,0,0,0,0.0,-0.00164795
2024-04-17,23:50,39.4,17.3,39.4,39.4,40.4,4.9,0.5,268.2,0.0,-0.00126729
2024-04-17,23:55,39,17.5,39.0,39,41.3,2.1,0.2,194,0.0,-0.00122596
2024-04-18,00:00,38.2,17.3,38.2,38.2,42.5,0,0,0,0.0,-0.00127329
2024-04-18,00:05,39.7,17.2,39.7,39.7,39.8,0.8,0,234.6,0.0,-0.0009977899
2024-04-18,00:10,39.4,17.3,39.4,39.4,40.4,2.6,0.1,239.5,0.0,-0.00125652
2024-04-18,00:15,40.3,17.7,40.3,40.3,39.8,4.2,0.4,276.7,0.0,-0.00107696
2024-04-18,00:20,38.5,17.5,38.5,38.5,42.3,1.7,0.3,235.8,0.0,-0.0012728
2024-04-18,00:25,39.6,17,39.6,39.6,39.4,3.8,0.7,269.2,0.0,-0.0009867899
2024-04-18,00:30,39.5,16.8,39.5,39.5,39.5,2.1,0.2,198.2,0.0,-0.00122015
2024-04-18,00:35,39.2,17,39.2,39.2,40.2,0.8,0.1,198.5,0.0,-0.00100307
2024-04-18,00:40,39.2,17.4,39.2,39.2,40.9,4.6,0.6,245.8,0.0,-0.00113576
2024-04-18,00:45,39.5,17.1,39.5,39.5,39.9,0,0,0,0.0,-0.00113961
2024-04-18,00:50,38.7,17.3,38.7,38.7,41.5,0,0,0,0.0,-0.0011274
2024-04-18,00:55,39.1,17.2,39.1,39.1,40.8,4.2,0.8,257.8,0.0,-0.00110828
2024-04-18,01:00,40.9,16,40.9,40.9,36.0,0.8,0,224.8,0.0,-0.0008586699
2024-04-18,01:05,40.5,16.8,40.5,40.5,37.9,3.7,0.6,302.7,0.0,-0.00099446
2024-04-18,01:10,40.9,16.6,40.9,40.9,37.0,0,0,0,0.0,-0.00107457
2024-04-18,01:15,40.4,16.9,40.4,40.4,38.2,1,0.1,262.7,0.0,-0.00116852
2024-04-18,01:20,39.5,17.4,39.5,39.5,40.4,0.8,0,199.3,0.0,-0.00125484
2024-04-18,01:25,40.1,17,40.1,40.1,38.7,0,0,0,0.0,-0.00123857
2024-04-18,01:30,38.5,16.6,38.5,38.5,40.7,0,0,0,0.0,-0.00122974
2024-04-18,01:35,39.7,16.5,39.7,39.7,38.6,0,0,0,0.0,-0.0008720399
2024-04-18,01:40,40.1,16.6,40.1,40.1,38.1,4.6,0.9,283.3,0.0,-0.00107192
2024-04-18,01:45,40.5,16.8,40.5,40.5,37.9,0,0,0,0.0,-0.00108123
2024-04-18,01:50,38.5,16.8,38.5,38.5,40.9,0,0,0,0.0,-0.0014648
2024-04-18,01:55,38.2,17.1,38.2,38.2,41.9,3.3,0.2,43.3,0.0,-0.00137803
2024-04-18,02:00,38.6,16.4,38.6,38.6,40.2,0,0,0,0.0,-0.00112552
2024-04-18,02:05,39,16.6,39.0,39,39.8,0,0,0,0.0,-0.00107573
2024-04-18,02:10,39.3,17,39.3,39.3,40.1,3.1,0.3,271.3,0.0,-0.00115873
2024-04-18,02:15,38.7,17.2,38.7,38.7,41.3,2.4,0.4,275.6,0.0,-0.00130647
2024-04-18,02:20,37,17.3,37.0,37,44.4,2.4,0.2,170.8,0.0,-0.00130461
2024-04-18,02:25,36.8,17.3,36.8,36.8,44.9,3.3,0.5,291.3,0.0,-0.00133088
2024-04-18,02:30,37.1,17.2,37.1,37.1,44.0,1.9,0.3,233,0.0,-0.00111591
2024-04-18,02:35,37.6,17.5,37.6,37.6,43.7,0.8,0,324.1,0.0,-0.00110037
2024-04-18,02:40,35.8,17.6,35.8,35.8,47.2,0,0,0,0.0,-0.00140764
2024-04-18,02:45,35.7,17.4,35.7,35.7,47.0,0,0,0,0.0,-0.0012785
2024-04-18,02:50,36,17.3,36.0,36,46.2,0,0,0,0.0,-0.00101001
2024-04-18,02:55,35.5,17.8,35.5,35.5,48.0,0,0,0,0.0,-0.00133755
2024-04-18,03:00,35.8,17.2,35.8,35.8,46.5,2.8,0.6,256,0.0,-0.00103512
2024-04-18,03:05,35.7,18.2,35.7,35.7,48.6,0,0,0,0.0,-0.0011592
2024-04-18,03:10,35.5,17.7,35.5,35.5,47.8,0,0,0,0.0,-0.00116037
2024-04-18,03:15,33.6,17.8,33.6,33.6,51.9,4.9,0.9,190.9,0.0,-0.00115153
2024-04-18,03:20,32.5,17.9,32.5,32.5,54.5,0,0,0,0.0,-0.00137705
2024-04-18,03:25,33.6,17.6,33.6,33.6,51.6,4.7,0.4,226.7,0.0,-0.0009954299
2024-04-18,03:30,33.7,17.8,33.7,33.7,51.7,0.8,0.1,53.0,0.0,-0.0010894
2024-04-18,03:35,34.3,17.4,34.3,34.3,49.6,0,0,0,0.0,-0.00104276
2024-04-18,03:40,34.2,17.1,34.2,34.2,49.3,0,0,0,0.0,-0.00108795
2024-04-18,03:45,34.4,17.6,34.4,34.4,49.8,0,0,0,0.0,-0.0009018999
2024-04-18,03:50,34.4,17.1,34.4,34.4,48.9,0,0,0,0.0,-0.00101144
2024-04-18,03:55,35.3,16.9,35.3,35.3,46.8,5.3,0.5,262.8,0.0,-0.0009975899
2024-04-18,04:00,34.8,17.3,34.8,34.8,48.5,0,0,0,0.0,-0.00104872
2024-04-18,04:05,33.9,17.2,33.9,33.9,49.9,0,0,0,0.0,-0.00119889
2024-04-18,04:10,33.9,17.2,33.9,33.9,50.0,0,0,0,0.0,-0.00107478
2024-04-18,04:15,34.2,17.3,34.2,34.2,49.6,1.7,0.2,260.1,0.0,-0.00104468
2024-04-18,04:20,34.1,17.6,34.1,34.1,50.4,3.3,0.2,245.6,0.0,-0.00108437
2024-04-18,04:25,33.6,17.4,33.6,33.6,51.1,3,0.4,226.3,0.0,-0.0009872699
2024-04-18,04:30,34.3,17.6,34.3,34.3,50.1,0.8,0,206.7,0.0,-0.00102149
2024-04-18,04:35,36,17.6,36.0,36,46.9,1.7,0.1,290.6,0.0,-0.00071778
2024-04-18,04:40,35.3,17.7,35.3,35.3,48.3,6.7,1.6,225.9,0.0,-0.0009571799
2024-04-18,04:45,35.8,17.3,35.8,35.8,46.7,3,0.4,284.4,0.0,-0.00100137
2024-04-18,04:50,34.3,17.1,34.3,34.3,49.1,2.4,0.2,216.4,0.0,-0.00117594
2024-04-18,04:55,35.1,17.2,35.1,35.1,47.9,2.4,0.2,267.8,0.0,-0.00084073
2024-04-18,05:00,35.2,17.6,35.2,35.2,48.3,1.7,0.1,262.8,0.0,-0.00111162
2024-04-18,05:05,34.9,17.9,34.9,34.9,49.6,0,0,0,0.0,-0.00110684
2024-04-18,05:10,34.1,17.7,34.1,34.1,50.7,0,0,0,0.0,-0.0011984
2024-04-18,05:15,34.4,17.2,34.4,34.4,49.0,1.7,0.4,226,0.0,-0.00092249
2024-04-18,05:20,34.6,17.5,34.6,34.6,49.2,1,0,273.7,0.0,-0.0009377599
2024-04-18,05:25,34.6,17.4,34.6,34.6,49.2,2.8,0.5,210.1,0.0,-0.00085721
2024-04-18,05:30,34.6,17.3,34.6,34.6,48.9,0,0,0,0.0,-0.00116993
2024-04-18,05:35,34.7,17.6,34.7,34.7,49.3,0,0,0,0.0,-0.00104396
2024-04-18,05:40,34.2,17.5,34.2,34.2,50.1,0,0,0,0.0,-0.00132227
2024-04-18,05:45,35.1,17.4,35.1,35.1,48.1,1.5,0.1,264.1,0.0,-0.00061762
2024-04-18,05:50,35.2,18,35.2,35.2,49.1,3,0.2,263.4,0.0,-0.00114534
2024-04-18,05:55,34.9,17.8,34.9,34.9,49.2,0,0,0,0.0,-0.00110159
2024-04-18,06:00,34.3,17.8,34.3,34.3,50.4,0,0,0,0.0,-0.00115298
2024-04-18,06:05,34.3,17.9,34.3,34.3,50.7,0,0,0,0.0,-0.00102771
2024-04-18,06:10,35.1,17.5,35.1,35.1,48.5,0,0,0,0.0,-0.0008667299
2024-04-18,06:15,33.9,18.1,33.9,33.9,51.9,2.4,0.1,225.5,0.0,-0.00092965
2024-04-18,06:20,32.5,18,32.5,32.5,54.8,0,0,0,0.0,-0.0005712199
2024-04-18,06:25,33.3,17.9,33.3,33.3,52.9,0,0,0,0.0,0.00031275
2024-04-18,06:30,33.5,17.9,33.5,33.5,52.4,0,0,0,0.0,0.0009512
2024-04-18,06:35,33.3,17.8,33.3,33.3,52.5,0,0,0,0.0,0.00174311
2024-04-18,06:40,33,18.2,33.0,33,54.1,0,0,0,0.0,0.00250731
2024-04-18,06:45,32.2,18.2,32.2,32.2,55.9,0,0,0,0.0,0.004816629
2024-04-18,06:50,31.7,18.2,31.7,31.7,57.0,0,0,0,0.0,0.0116865
2024-04-18,06:55,33.3,18.6,33.3,33.3,54.3,3.1,0.2,253.4,0.0,0.02190459
2024-04-18,07:00,34.5,18.6,34.5,34.5,51.8,2.2,0.2,255.8,0.0,0.02806123
2024-04-18,07:05,35.3,19.2,35.3,35.3,51.4,0,0,0,0.0,0.0321672
2024-04-18,07:10,36.4,19.2,36.4,36.4,49.2,0,0,0,0.0,0.0362804
2024-04-18,07:15,37.8,19.9,37.8,37.8,48.1,0,0,0,0.0,0.04067333
2024-04-18,07:20,39.4,20,39.4,39.4,45.5,0,0,0,0.0,0.04485371
2024-04-18,07:25,40.6,18.6,40.6,40.6,40.8,0,0,0,0.0,0.04923227
2024-04-18,07:30,40.6,20,40.6,40.6,43.2,0,0,0,0.0,0.05392364
2024-04-18,07:35,41.5,19.9,41.5,41.5,41.7,0,0,0,0.0,0.05906184
2024-04-18,07:40,42.2,19.3,42.2,42.2,39.6,0,0,0,0.0,0.06381819
2024-04-18,07:45,43.6,18.3,43.6,43.6,35.8,0,0,0,0.0,0.06860018
2024-04-18,07:50,46.1,17.9,46.1,46.1,32.0,0,0,0,0.0,0.07331041
2024-04-18,07:55,47.4,18.6,47.4,47.4,31.5,0,0,0,0.0,0.07841753
2024-04-18,08:00,45.8,21.1,45.8,45.8,37.2,0,0,0,0.0,0.08305796
2024-04-18,08:05,45.2,19.6,45.2,45.2,35.7,0,0,0,0.0,0.08861391
2024-04-18,08:10,45.7,20.5,45.7,45.7,36.4,0,0,0,0.0,0.09458353
2024-04-18,08:15,46.2,20,46.2,46.2,34.9,0,0,0,0.0,0.1009575
2024-04-18,08:20,47.4,20.8,47.4,47.4,34.6,0,0,0,0.0,0.103988
2024-04-18,08:25,48,22.7,48.0,48,36.8,0,0,0,0.0,0.1054992
2024-04-18,08:30,48.1,23,48.1,48.1,36.9,0,0,0,0.0,0.1091764
2024-04-18,08:35,50.2,21.1,50.2,50.2,31.4,0,0,0,0.0,0.1224975
2024-04-18,08:40,51,21.6,51.0,51,31.3,0,0,0,0.0,0.1284432
2024-04-18,08:45,51.9,21.4,51.9,51.9,30.0,0,0,0,0.0,0.1302298
2024-04-18,08:50,53.2,23.9,53.2,53.2,31.8,0,0,0,0.0,0.1329564
2024-04-18,08:55,54.3,20.8,54.3,54.3,26.7,0,0,0,0.0,0.1428642
2024-04-18,09:00,55.9,18.6,55.9,55.9,23.0,0,0,0,0.0,0.1500601
2024-04-18,09:05,56.8,22,56.8,56.8,25.8,0,0,0,0.0,0.1365328
2024-04-18,09:10,57,21.9,57.0,57,25.4,0,0,0,0.0,0.1467215
2024-04-18,09:15,58.2,21,58.2,58.2,23.5,2.8,0.2,32.5,0.0,0.1514336
2024-04-18,09:20,59.4,19.5,59.4,59.4,21.1,4.9,0.6,23.3,0.0,0.1725267
2024-04-18,09:25,59.3,18.7,59.3,59.3,20.4,5.8,3.4,57.4,0.0,0.1803073
2024-04-18,09:30,59.6,16,59.6,59.6,18.0,8.5,5.3,76.4,0.0,0.1623617
2024-04-18,09:35,59.1,17.1,59.1,59.1,19.3,9.9,6.1,68.9,0.0,0.1801603
2024-04-18,09:40,58,23.1,58.0,58,25.8,11.9,7.1,69,0.0,0.1694333
2024-04-18,09:45,57.5,24.5,57.5,57.5,27.9,11.3,6.6,68.3,0.0,0.191705
2024-04-18,09:50,57,26.6,57.0,57,30.9,12.4,8.4,74.7,0.0,0.2080023
2024-04-18,09:55,56.7,26.1,56.7,56.7,30.7,10.3,7.1,74.0,0.0,0.1649084
2024-04-18,10:00,57.9,27.1,57.9,57.9,30.6,8.1,5.5,74.5,0.0,0.2039591
2024-04-18,10:05,58.6,27.5,58.6,58.6,30.3,9.2,5.3,87.4,0.0,0.2108228
2024-04-18,10:10,59,27.5,59.0,59,29.9,8,4.3,86.2,0.0,0.2232864
2024-04-18,10:15,58.2,27,58.2,58.2,30.1,9.2,6.6,67.2,0.0,0.2337841
2024-04-18,10:20,57.6,26.9,57.6,57.6,30.7,7.4,5.4,82.7,0.0,0.1820954
2024-04-18,10:25,59.2,26.6,59.2,59.2,28.5,10.1,4.4,76.9,0.0,0.230146
2024-04-18,10:30,58.8,26.7,58.8,58.8,29.2,7.4,4.2,74.8,0.0,0.2165332
2024-04-18,10:35,59.9,26.9,59.9,59.9,28.2,7.2,3.3,79.8,0.0,0.231589
2024-04-18,10:40,60.6,27.8,60.6,60.6,28.6,7.8,4.2,70.2,0.0,0.2423483
2024-04-18,10:45,60.3,28.3,60.3,60.3,29.5,8,4.7,74.5,0.0,0.2466075